La Jolla Heights (636, 617) Station Data

Red Flag Warning: No
Fire Weather Zone: 243
SDGE Region: Beach Cities
Lat/Lon: 32.844/-117.24

Observations

Time Wind Speed/Gust Temp(F) RH Fuel Moist Fuel Temp(F) Dewpt(F) Tmax(F) Tmin(F) Accum Precip 10-min Precip SL Press(mb)
6/27 5:00pm 295 7 G 12 68° 82% - - 62° 73° 62.6° - - -
6/27 4:50pm 286 7 G 11 69° 80% - - 62° 73° 62.6° - - -
6/27 4:40pm 281 7 G 12 68° 82% - - 62° 73° 62.6° - - -
6/27 4:30pm 286 7 G 11 68° 81% - - 62° 73° 62.6° - - -
6/27 4:20pm 294 8 G 12 68° 83% - - 62° 73° 62.6° - - -
6/27 4:10pm 292 7 G 12 69° 79% - - 62° 73° 62.6° - - -
6/27 4:00pm 292 7 G 13 70° 78% - - 62° 73° 62.6° - - -
6/27 3:50pm 303 9 G 13 69° 75% - - 61° 73° 62.6° - - -
6/27 3:40pm 307 8 G 13 70° 72% - - 60° 73° 62.6° - - -
6/27 3:30pm 303 8 G 12 70° 70% - - 60° 73° 62.6° - - -
6/27 3:20pm 305 8 G 12 71° 66% - - 59° 73° 62.6° - - -
6/27 3:10pm 291 7 G 12 71° 65% - - 59° 73° 62.6° - - -
6/27 3:00pm 298 8 G 13 71° 70% - - 61° 73° 62.6° - - -
6/27 2:50pm 286 8 G 12 71° 73% - - 61° 73° 62.6° - - -
6/27 2:40pm 288 9 G 13 71° 73% - - 62° 73° 62.6° - - -
6/27 2:30pm 289 9 G 13 70° 75% - - 62° 73° 62.6° - - -
6/27 2:20pm 288 10 G 15 70° 75% - - 62° 73° 62.6° - - -
6/27 2:10pm 287 10 G 16 70° 75% - - 62° 73° 62.6° - - -
6/27 2:00pm 284 11 G 16 71° 77% - - 63° 73° 62.6° - - -
6/27 1:50pm 286 10 G 14 71° 78% - - 64° 73° 62.6° - - -
6/27 1:40pm 278 10 G 15 71° 78% - - 64° 73° 62.6° - - -
6/27 1:30pm 281 10 G 15 71° 78% - - 64° 73° 62.6° - - -
6/27 1:20pm 285 11 G 15 71° 77% - - 64° 73° 62.6° - - -
6/27 1:10pm 284 11 G 15 71° 78% - - 64° 73° 62.6° - - -
6/27 1:00pm 287 10 G 16 71° 77% - - 64° 73° 62.6° - - -
6/27 12:50pm 281 10 G 15 72° 75% - - 64° 73° 62.6° - - -
6/27 12:40pm 285 10 G 15 71° 76% - - 63° 72.2° 62.6° - - -
6/27 12:30pm 284 10 G 13 71° 76% - - 63° 72.1° 62.6° - - -
6/27 12:20pm 286 10 G 13 71° 77% - - 64° 71.9° 62.6° - - -
6/27 12:10pm 280 10 G 14 71° 78% - - 64° 71.9° 62.6° - - -
6/27 12:00pm 278 10 G 14 71° 78% - - 64° 71.9° 62.6° - - -
6/27 11:50am 279 10 G 17 71° 79% - - 64° 71.9° 62.6° - - -
6/27 11:40am 291 10 G 15 70° 78% - - 63° 71.9° 62.6° - - -
6/27 11:30am 288 10 G 14 71° 75% - - 62° 71.9° 62.6° - - -
6/27 11:20am 291 9 G 13 70° 75% - - 62° 71.9° 62.6° - - -
6/27 11:10am 291 9 G 13 71° 76% - - 63° 71.9° 62.6° - - -
6/27 11:00am 290 9 G 12 71° 77% - - 63° 71.9° 62.6° - - -
6/27 10:50am 281 8 G 12 71° 77% - - 64° 71.9° 62.6° - - -
6/27 10:40am 281 8 G 11 70° 79% - - 64° 71.2° 62.6° - - -
6/27 10:30am 282 7 G 11 70° 80% - - 64° 71.2° 62.6° - - -
6/27 10:20am 288 7 G 10 70° 82% - - 64° 70.2° 62.6° - - -
6/27 10:10am 285 6 G 9 69° 82% - - 64° 70.2° 62.6° - - -
6/27 10:00am 287 6 G 9 69° 83% - - 64° 69.9° 62.6° - - -
6/27 9:50am 284 6 G 8 69° 83% - - 64° 69.8° 62.6° - - -
6/27 9:40am 291 6 G 9 68° 85% - - 64° 69.5° 62.6° - - -
6/27 9:30am 287 6 G 8 68° 86% - - 64° 68.8° 62.6° - - -
6/27 9:20am 287 6 G 8 67° 89% - - 63° 68.1° 62.6° - - -
6/27 9:10am 295 7 G 9 66° 91% - - 63° 67.7° 62.6° - - -
6/27 9:00am 288 6 G 9 66° 93% - - 64° 67.7° 62.6° - - -
6/27 8:50am 287 6 G 8 66° 95% - - 64° 67.7° 62.6° - - -
6/27 8:40am 282 5 G 8 65° 96% - - 64° 67.7° 62.6° - - -
6/27 8:30am 284 4 G 7 65° 97% - - 64° 67.7° 62.6° - - -
6/27 8:20am 292 4 G 6 65° 97% - - 64° 67.7° 62.6° - - -
6/27 8:10am 294 3 G 5 64° 97% - - 64° 67.7° 62.6° - - -
6/27 8:00am 293 3 G 4 64° 97% - - 63° 67.7° 62.6° - - -
6/27 7:50am 297 3 G 4 64° 97% - - 63° 67.7° 62.6° - - -
6/27 7:40am 302 1 G 2 64° 97% - - 63° 67.7° 62.6° - - -
6/27 7:30am 290 2 G 3 63° 97% - - 62° 67.7° 62.6° - - -
6/27 7:20am 292 3 G 4 63° 97% - - 62° 67.7° 62.6° - - -
6/27 7:10am 284 3 G 5 63° 97% - - 62° 67.7° 62.6° - - -
6/27 7:00am 284 5 G 6 63° 97% - - 62° 67.7° 62.6° - - -
6/27 6:50am 290 4 G 6 64° 96% - - 62° 67.7° 62.6° - - -
6/27 6:40am 291 3 G 4 64° 95% - - 62° 67.7° 62.6° - - -
6/27 6:30am 282 3 G 4 64° 94% - - 62° 67.7° 62.6° - - -
6/27 6:20am 278 2 G 3 64° 94% - - 62° 67.7° 62.6° - - -
6/27 6:10am 278 2 G 3 64° 94% - - 62° 67.7° 62.6° - - -
6/27 6:00am 285 3 G 3 64° 94% - - 62° 67.7° 62.6° - - -
6/27 5:50am 282 3 G 3 64° 94% - - 62° 67.7° 62.6° - - -
6/27 5:40am 290 1 G 3 63° 93% - - 62° 67.7° 62.6° - - -
6/27 5:30am 128 1 G 3 63° 91% - - 61° 67.7° 62.6° - - -
6/27 5:20am 284 2 G 3 64° 91% - - 61° 67.7° 62.9° - - -
6/27 5:10am 315 1 G 2 64° 89% - - 61° 67.7° 62.9° - - -
6/27 5:00am 291 2 G 3 64° 91% - - 62° 67.7° 62.9° - - -
6/27 4:50am 305 2 G 3 64° 93% - - 62° 67.7° 62.9° - - -
6/27 4:40am 0 1 G 2 65° 91% - - 62° 67.7° 62.9° - - -
6/27 4:30am 286 1 G 2 65° 85% - - 61° 67.7° 62.9° - - -
6/27 4:20am 147 2 G 5 64° 88% - - 61° 67.7° 62.9° - - -
6/27 4:10am 269 2 G 5 66° 85% - - 61° 67.7° 62.9° - - -
6/27 4:00am 284 2 G 4 65° 89% - - 62° 67.7° 62.9° - - -
6/27 3:50am 292 3 G 5 64° 95% - - 63° 67.7° 62.9° - - -
6/27 3:40am 290 4 G 5 64° 95% - - 63° 67.7° 62.9° - - -
6/27 3:30am 294 4 G 5 65° 93% - - 63° 67.7° 62.9° - - -
6/27 3:20am 294 4 G 6 64° 94% - - 63° 67.7° 62.9° - - -
6/27 3:10am 277 5 G 9 64° 93% - - 62° 67.7° 62.9° - - -
6/27 3:00am 270 8 G 10 64° 91% - - 61° 67.7° 62.9° - - -
6/27 2:50am 276 7 G 10 64° 88% - - 61° 67.7° 63.3° - - -
6/27 2:40am 277 7 G 9 64° 88% - - 60° 67.7° 63.3° - - -
6/27 2:30am 282 7 G 8 64° 86% - - 60° 67.7° 63.6° - - -
6/27 2:20am 286 5 G 6 65° 85% - - 60° 67.7° 64.3° - - -
6/27 2:10am 291 2 G 4 66° 83% - - 60° 67.7° 64.8° - - -
6/27 2:00am 230 0 G 1 66° 81% - - 60° 67.7° 64.8° - - -
6/27 1:50am 214 1 G 3 66° 79% - - 59° 67.7° 64.8° - - -
6/27 1:40am 278 2 G 3 65° 84% - - 60° 67.7° 64.8° - - -
6/27 1:30am 286 4 G 5 65° 85% - - 61° 67.7° 64.8° - - -
6/27 1:20am 290 4 G 4 66° 85% - - 61° 67.7° 64.8° - - -
6/27 1:10am 284 4 G 5 66° 86% - - 61° 67.7° 64.8° - - -
6/27 1:00am 283 5 G 7 65° 89% - - 62° 67.7° 64.8° - - -
6/27 12:50am 287 6 G 7 66° 88% - - 62° 67.7° 65° - - -
6/27 12:40am 279 7 G 12 66° 84% - - 61° 67.7° 65° - - -
6/27 12:30am 286 7 G 8 66° 86% - - 62° 67.7° 65.2° - - -
6/27 12:20am 280 7 G 11 66° 84% - - 61° 67.7° 65.4° - - -
6/27 12:10am 289 6 G 8 67° 84% - - 62° 67.7° 65.9° - - -
6/27 12:00am 292 5 G 7 69° 67% - - 57° 77.6° 60.6° - - -
6/26 11:50pm 285 5 G 8 71° 55% - - 54° 77.6° 60.6° - - -
6/26 11:40pm 273 6 G 9 72° 52% - - 53° 77.6° 60.6° - - -
6/26 11:30pm 276 6 G 8 72° 49% - - 52° 77.6° 60.6° - - -
6/26 11:20pm 282 5 G 7 73° 46% - - 51° 77.6° 60.6° - - -
6/26 11:10pm 292 5 G 7 74° 43% - - 51° 77.6° 60.6° - - -
6/26 11:00pm 295 4 G 8 75° 42% - - 51° 77.6° 60.6° - - -
6/26 10:50pm 307 3 G 4 75° 45% - - 52° 77.6° 60.6° - - -
6/26 10:40pm 333 2 G 4 75° 45% - - 52° 77.6° 60.6° - - -
6/26 10:30pm 317 1 G 3 74° 47% - - 52° 77.6° 60.6° - - -
6/26 10:20pm 83 0 G 2 72° 58% - - 56° 77.6° 60.6° - - -
6/26 10:10pm 80 0 G 1 72° 63% - - 59° 77.6° 60.6° - - -
6/26 10:00pm 60 2 G 3 72° 62% - - 59° 77.6° 60.6° - - -
6/26 9:50pm 4 1 G 2 72° 58% - - 57° 77.6° 60.6° - - -
6/26 9:40pm 301 3 G 5 68° 75% - - 60° 77.6° 60.6° - - -
6/26 9:30pm 283 4 G 5 66° 94% - - 64° 77.6° 60.6° - - -
6/26 9:20pm 284 4 G 5 66° 94% - - 64° 77.6° 60.6° - - -
6/26 9:10pm 277 5 G 7 66° 93% - - 64° 77.6° 60.6° - - -
6/26 9:00pm 276 5 G 7 66° 93% - - 64° 77.6° 60.6° - - -
6/26 8:50pm 271 5 G 7 66° 91% - - 64° 77.6° 60.6° - - -
6/26 8:40pm 271 5 G 7 67° 91% - - 64° 77.6° 60.6° - - -
6/26 8:30pm 271 5 G 7 67° 91% - - 64° 77.6° 60.6° - - -
6/26 8:20pm 271 5 G 6 68° 91% - - 65° 77.6° 60.6° - - -
6/26 8:10pm 272 5 G 7 68° 89% - - 65° 77.6° 60.6° - - -
6/26 8:00pm 284 4 G 6 69° 87% - - 65° 77.6° 60.6° - - -
6/26 7:50pm 278 5 G 7 70° 83% - - 65° 77.6° 60.6° - - -
6/26 7:40pm 283 4 G 6 72° 79% - - 65° 77.6° 60.6° - - -
6/26 7:30pm 274 3 G 4 73° 73% - - 64° 77.6° 60.6° - - -
6/26 7:20pm 275 4 G 6 73° 72% - - 64° 77.6° 60.6° - - -
6/26 7:10pm 280 4 G 6 73° 72% - - 63° 77.6° 60.6° - - -
6/26 7:00pm 287 5 G 7 73° 73% - - 64° 77.6° 60.6° - - -
6/26 6:50pm 286 6 G 9 73° 74% - - 64° 77.6° 60.6° - - -
6/26 6:40pm 293 6 G 10 72° 75% - - 64° 77.6° 60.6° - - -
6/26 6:30pm 288 6 G 10 72° 76% - - 64° 77.6° 60.6° - - -
6/26 6:20pm 296 6 G 11 72° 75% - - 64° 77.6° 60.6° - - -
6/26 6:10pm 283 6 G 9 73° 71% - - 63° 77.6° 60.6° - - -
6/26 6:00pm 288 6 G 9 73° 69% - - 63° 77.6° 60.6° - - -
6/26 5:50pm 275 6 G 10 73° 67% - - 62° 77.6° 60.6° - - -
6/26 5:40pm 284 7 G 10 74° 65% - - 61° 77.6° 60.6° - - -
6/26 5:30pm 278 7 G 10 74° 65% - - 62° 77.6° 60.6° - - -
6/26 5:20pm 284 7 G 11 73° 67% - - 61° 77.6° 60.6° - - -
6/26 5:10pm 292 9 G 12 74° 65% - - 61° 77.6° 60.6° - - -
6/26 5:00pm 286 9 G 12 74° 64% - - 61° 77.6° 60.6° - - -
6/26 4:50pm 282 8 G 11 75° 59% - - 60° 77.6° 60.6° - - -
6/26 4:40pm 278 8 G 11 74° 60% - - 60° 77.6° 60.6° - - -
6/26 4:30pm 271 9 G 12 74° 63% - - 61° 77.6° 60.6° - - -
6/26 4:20pm 274 8 G 13 75° 65% - - 62° 77.6° 60.6° - - -
6/26 4:10pm 271 7 G 12 74° 68% - - 63° 77.6° 60.6° - - -
6/26 4:00pm 292 7 G 11 73° 72% - - 64° 77.6° 60.6° - - -
6/26 3:50pm 273 8 G 11 73° 72% - - 64° 77.6° 60.6° - - -
6/26 3:40pm 285 8 G 12 72° 73% - - 63° 77.6° 60.6° - - -
6/26 3:30pm 285 9 G 12 73° 72% - - 64° 77.6° 60.6° - - -
6/26 3:20pm 277 8 G 12 74° 70% - - 64° 77.6° 60.6° - - -
6/26 3:10pm 290 8 G 11 73° 74% - - 64° 77.6° 60.6° - - -
6/26 3:00pm 294 9 G 12 72° 75% - - 64° 77.6° 60.6° - - -
6/26 2:50pm 282 8 G 11 73° 73% - - 64° 77.6° 60.6° - - -
6/26 2:40pm 275 9 G 14 73° 73% - - 64° 77.6° 60.6° - - -
6/26 2:30pm 276 9 G 14 73° 72% - - 64° 77.6° 60.6° - - -
6/26 2:20pm 281 9 G 14 73° 73% - - 64° 77.6° 60.6° - - -
6/26 2:10pm 283 10 G 13 73° 72% - - 64° 77.6° 60.6° - - -
6/26 2:00pm 282 10 G 12 74° 71% - - 63° 77.6° 60.6° - - -
6/26 1:50pm 277 9 G 15 74° 70% - - 63° 77.6° 60.6° - - -
6/26 1:40pm 290 9 G 13 73° 71% - - 63° 77.6° 60.6° - - -
6/26 1:30pm 285 8 G 11 74° 70% - - 64° 77.6° 60.6° - - -
6/26 1:20pm 288 8 G 11 74° 70% - - 63° 77.6° 60.6° - - -
6/26 1:10pm 293 7 G 10 75° 69% - - 64° 77.6° 60.6° - - -
6/26 1:00pm 287 7 G 10 74° 69% - - 64° 77.6° 60.6° - - -
6/26 12:50pm 296 7 G 11 75° 68% - - 64° 77.6° 60.6° - - -
6/26 12:40pm 293 7 G 10 74° 69% - - 64° 77.6° 60.6° - - -
6/26 12:30pm 282 7 G 10 76° 67% - - 64° 77.6° 60.6° - - -
6/26 12:20pm 279 5 G 9 75° 68% - - 64° 77.6° 60.6° - - -
6/26 12:10pm 280 5 G 9 75° 68% - - 64° 77.6° 60.6° - - -
6/26 12:00pm 283 4 G 7 75° 68% - - 64° 77.6° 60.6° - - -
6/26 11:50am 280 5 G 8 75° 69% - - 64° 77.6° 60.6° - - -
6/26 11:40am 280 5 G 9 76° 67% - - 64° 77.6° 60.6° - - -
6/26 11:30am 282 3 G 9 75° 69% - - 64° 76.5° 60.6° - - -
6/26 11:20am 310 4 G 8 75° 70% - - 65° 76.4° 60.6° - - -
6/26 11:10am 300 4 G 7 74° 73% - - 65° 75.1° 60.6° - - -
6/26 11:00am 306 4 G 8 73° 75% - - 65° 74.6° 60.6° - - -
6/26 10:50am 301 4 G 6 72° 77% - - 65° 73.1° 60.6° - - -
6/26 10:40am 304 5 G 7 70° 80% - - 64° 71.5° 60.6° - - -
6/26 10:30am 303 6 G 10 69° 83% - - 64° 70.6° 60.6° - - -
6/26 10:20am 296 7 G 9 69° 82% - - 63° 70.6° 60.6° - - -
6/26 10:10am 293 7 G 10 69° 81% - - 63° 70.6° 60.6° - - -
6/26 10:00am 294 6 G 9 70° 80% - - 63° 70.6° 60.6° - - -
6/26 9:50am 287 5 G 8 70° 81% - - 64° 70.6° 60.6° - - -
6/26 9:40am 293 5 G 8 69° 82% - - 63° 70.3° 60.6° - - -
6/26 9:30am 290 4 G 6 69° 82% - - 63° 69.8° 60.6° - - -
6/26 9:20am 293 5 G 8 69° 83% - - 63° 69.8° 60.6° - - -
6/26 9:10am 290 5 G 7 69° 83% - - 64° 69.8° 60.6° - - -
6/26 9:00am 287 3 G 5 69° 84% - - 64° 69.7° 60.6° - - -
6/26 8:50am 285 4 G 5 68° 86% - - 64° 68.5° 60.6° - - -
6/26 8:40am 294 3 G 4 67° 88% - - 63° 67.7° 60.6° - - -
6/26 8:30am 284 4 G 6 67° 89% - - 64° 67.5° 60.6° - - -
6/26 8:20am 285 5 G 6 67° 89% - - 64° 67.5° 60.6° - - -
6/26 8:10am 293 4 G 6 66° 90% - - 63° 67.2° 60.6° - - -
6/26 8:00am 298 4 G 5 66° 91% - - 63° 66.7° 60.6° - - -
6/26 7:50am 303 3 G 5 65° 94% - - 63° 66.7° 60.6° - - -
6/26 7:40am 291 5 G 7 64° 96% - - 63° 66.7° 60.6° - - -
6/26 7:30am 283 7 G 8 63° 97% - - 62° 66.7° 60.6° - - -
6/26 7:20am 284 7 G 8 63° 97% - - 62° 66.7° 60.6° - - -
6/26 7:10am 285 7 G 8 63° 97% - - 62° 66.7° 60.6° - - -
6/26 7:00am 284 5 G 6 63° 96% - - 62° 66.7° 60.6° - - -
6/26 6:50am 285 5 G 6 63° 96% - - 62° 66.7° 60.6° - - -
6/26 6:40am 289 3 G 4 64° 95% - - 62° 66.7° 60.6° - - -
6/26 6:30am 286 0 G 2 63° 96% - - 62° 66.7° 60.6° - - -
6/26 6:20am 140 0 G 2 63° 97% - - 62° 66.7° 60.6° - - -
6/26 6:10am 284 2 G 4 63° 97% - - 62° 66.7° 60.6° - - -
6/26 6:00am 283 3 G 5 63° 97% - - 62° 66.7° 60.6° - - -